Weather History for Phoenix Deer Valley, AZ

Change the Weather History Date:

Monday, November 28, 2011

  Actual Average Record
Temperature  
Mean Temperature 59 °F -  
Max Temperature 72 °F 65 °F 80 °F (2014)
Min Temperature 46 °F 45 °F 41 °F (2005)
Degree Days  
Heating Degree Days 6    
Growing Degree Days 9 (Base 50)    
Moisture  
Dew Point 23 °F    
Average Humidity 27    
Maximum Humidity 39    
Minimum Humidity 13    
Precipitation  
Precipitation 0.00 in - - ()
Sea Level Pressure  
Sea Level Pressure 30.14 in    
Wind  
Wind Speed 2 mph (NNE)    
Max Wind Speed 8 mph    
Max Gust Speed -    
Visibility 10 miles    
Events      
Averages and records for this station are not official NWS values.
T = Trace of Precipitation, MM = Missing Value Source: NWS Daily Summary

Daily Weather History Graph

Daily Weather History Graph

Search for Another Location

Airport:

Trip Planner

Search our weather history database for the weather conditions in past years. The results will help you decide how hot, cold, wet, or windy it might be!

Date:

Astronomy

Nov. 28, 2011 Rise Set
Actual Time 7:11 AM MST 5:20 PM MST
Civil Twilight 6:44 AM MST 5:47 PM MST
Nautical Twilight 6:14 AM MST 6:17 PM MST
Astronomical Twilight 5:44 AM MST 6:47 PM MST
Moon 10:25 AM MST (11/28) 9:08 PM MST (11/28)
Length of Visible Light 11h 02m
Length of Day
10h 08m
Waxing Crescent, 16% of the Moon is Illuminated
Nov 28
Waxing Crescent
Dec 2
First Quarter
Dec 10
Full
Dec 17
Last Quarter
Dec 24
New

Hourly Weather History & Observations

Time (MST) Temp. Dew Point Humidity Pressure Visibility Wind Dir Wind Speed Gust Speed Precip Events Conditions
12:53 AM 54.0 °F 21.9 °F 29% 30.22 in 10.0 mi Calm Calm - N/A   Clear
1:53 AM 48.9 °F 23.0 °F 36% 30.20 in 10.0 mi Calm Calm - N/A   Clear
2:53 AM 52.0 °F 21.9 °F 31% 30.20 in 10.0 mi NNE 8.1 mph - N/A   Clear
3:53 AM 51.1 °F 19.9 °F 29% 30.19 in 10.0 mi NE 3.5 mph - N/A   Clear
4:53 AM 51.1 °F 21.0 °F 31% 30.18 in 10.0 mi NNE 5.8 mph - N/A   Clear
5:53 AM 46.9 °F 23.0 °F 39% 30.19 in 10.0 mi Calm Calm - N/A   Clear
6:53 AM 46.9 °F 23.0 °F 39% 30.19 in 10.0 mi Calm Calm - N/A   Clear
7:53 AM 50.0 °F 23.0 °F 35% 30.21 in 10.0 mi North 5.8 mph - N/A   Clear
8:53 AM 55.9 °F 24.1 °F 29% 30.20 in 10.0 mi Calm Calm - N/A   Clear
9:53 AM 61.0 °F 25.0 °F 25% 30.20 in 10.0 mi Calm Calm - N/A   Clear
10:53 AM 62.1 °F 24.1 °F 23% 30.19 in 10.0 mi SSE 3.5 mph - N/A   Clear
11:53 AM 66.0 °F 21.9 °F 19% 30.17 in 10.0 mi Calm Calm - N/A   Clear
12:53 PM 68.0 °F 21.0 °F 17% 30.13 in 10.0 mi Variable 4.6 mph - N/A   Clear
1:53 PM 70.0 °F 19.9 °F 15% 30.10 in 10.0 mi Calm Calm - N/A   Clear
2:53 PM 72.0 °F 18.0 °F 13% 30.07 in 10.0 mi WSW 3.5 mph - N/A   Clear
3:53 PM 72.0 °F 19.9 °F 14% 30.06 in 10.0 mi Calm Calm - N/A   Clear
4:53 PM 71.1 °F 21.0 °F 15% 30.06 in 10.0 mi SW 3.5 mph - N/A   Clear
5:53 PM 66.0 °F 23.0 °F 20% 30.06 in 10.0 mi Calm Calm - N/A   Clear
6:53 PM 60.1 °F 24.1 °F 25% 30.07 in 10.0 mi Calm Calm - N/A   Clear
7:53 PM 55.0 °F 26.1 °F 33% 30.08 in 10.0 mi NNE 3.5 mph - N/A   Clear
8:53 PM 55.9 °F 27.0 °F 33% 30.08 in 10.0 mi Calm Calm - N/A   Clear
9:53 PM 55.9 °F 27.0 °F 33% 30.07 in 10.0 mi Calm Calm - N/A   Clear
10:53 PM 54.0 °F 27.0 °F 35% 30.07 in 10.0 mi Calm Calm - N/A   Clear